Weather in Simbukhovo

Russia / Nizhny Novgorod Oblast'     54°31′56″N   44°58′02″E
В апреле 2022 года жителям России запретили посещать сайт meteo.paraplan.net по решению Генеральной прокуратуры. Аудитория сайта уменьшилась в 10 раз. Владельцы сайта не видят смысла в поддержке погодного сервера в таких условиях. Сайт будет закрыт в октябре.
temp.,
°C
wind,
m/s
gust,
m/s
humid.,
%
clouds,
%
prec.,
mm/h
press.,
hPa
HPBL,
m
29 september, thu
thu2900:00+11se3694100 0.6 1004199
03:00+11ese3495100 0.9 1005105
06:00+11n0096100 0.3 100510
09:00+12nw1193100 0.3 100794
12:00+14wnw2386100 0.0 1008394
15:00+15nw348246 0.1 1010581
18:00+13wnw358477 0.1 1013104
21:00+12nw2378100 0.1 101539
30 september, fri
fri3000:00+10wnw2287100 0.0 101732
03:00+10nnw0087100 0.0 101810
06:00+9sse118826 0.0 101910
09:00+12sse227790 0.0 1020222
12:00+15sse3366100 0.0 1021582
15:00+16sse336485 0.0 1020667
18:00+13sse3380100 0.0 102143
21:00+12sse3383100 0.0 102148
1 october, sat
sat100:00+11sse3684100 0.0 1021121
03:00+12sse3882100 0.0 1021190
06:00+12s3783100 0.1 1021183
09:00+14s487892 0.2 1020310
12:00+16s4774100 0.0 1019466
15:00+19s5965100 0.0 1018863
18:00+15s41187100 1.3 1017341
21:00+15s51387100 3.9 1016464
2 october, sun
sun200:00+13s5139198 0.0 1015395
03:00+14s51193100 0.1 1013393
06:00+13s61295100 0.0 1013366
09:00+15s61287100 0.0 1012446
12:00+16s51183100 0.0 1011515
15:00+18ssw5107738 0.0 1010813
18:00+15ssw489286 1.1 1010182
21:00+14ssw2395100 1.9 101060
3 october, mon
mon300:00+14se349489 0.1 100976
03:00+14s41195100 1.2 1009327
06:00+14sse399681 0.4 1009224
09:00+16sse61477100 0.4 1009539
12:00+18sse81560100 0.0 1009853
15:00+18sse81655100 0.0 10101071
18:00+17sse91749100 0.0 10111021
21:00+17sse101749100 0.0 1010923